Buckland, AK

9:56 PM AKDT on May 26, 2018 (GMT -0800)
Buckland

Weather History for PABL - November, 2012

Change the Weather History Date:

Tuesday, November 27, 2012

  Actual Average (PASK) Record (PASK)
Temperature  
Mean Temperature -6 °F -  
Max Temperature 0 °F 4 °F 30 °F (2002)
Min Temperature -11 °F -3 °F -29 °F (2016)
Degree Days  
Heating Degree Days 70    
Moisture  
Dew Point -11 °F    
Average Humidity 81    
Maximum Humidity 100    
Minimum Humidity 35    
Precipitation  
Precipitation 0.00 in - - ()
Sea Level Pressure  
Sea Level Pressure 30.23 in    
Wind  
Wind Speed 3 mph (SE)    
Max Wind Speed 7 mph    
Max Gust Speed -    
Visibility 10 miles    
Events      
Averages and records for this station are not official NWS values.
T = Trace of Precipitation, MM = Missing Value Source: NWS Daily Summary

Daily Weather History Graph

Daily Weather History Graph

Search for Another Location

Airport or City:

Astronomy

Nov. 27, 2012 Rise Set
Actual Time 11:19 AM AKST 3:44 PM AKST
Civil Twilight 9:59 AM AKST 5:04 PM AKST
Nautical Twilight 8:48 AM AKST 6:15 PM AKST
Astronomical Twilight 7:46 AM AKST 7:18 PM AKST
Moon 3:32 PM AKST 10:24 AM AKST
Length of Visible Light 7h 05m
Length of Day
4h 25m
Full, 100% of the Moon is Illuminated
Nov 27
Full
Nov 28
Full
Dec 6
Last Quarter
Dec 12
New
Dec 19
First Quarter

Hourly Weather History & Observations

Time (AKST) Temp. Windchill Dew Point Humidity Pressure Visibility Wind Dir Wind Speed Gust Speed Precip Events Conditions
12:16 AM -7.6 °F - -7.6 °F 100% 30.12 in 10.0 mi Calm Calm - N/A   Clear
12:36 AM -7.6 °F - -16.6 °F 65% 30.12 in 10.0 mi Calm Calm - N/A   Clear
12:56 AM -7.6 °F - -14.8 °F 71% 30.12 in 10.0 mi Calm Calm - N/A   Clear
1:16 AM -9.4 °F - -9.4 °F 100% 30.12 in 10.0 mi Calm Calm - N/A   Clear
1:36 AM -9.4 °F -20.9 °F -14.8 °F 77% 30.12 in 10.0 mi South 4.6 mph - N/A   Clear
1:56 AM -7.6 °F -22.1 °F -7.6 °F 100% 30.12 in 10.0 mi South 6.9 mph - N/A   Clear
2:16 AM -7.6 °F - -16.6 °F 65% 30.12 in 10.0 mi Calm Calm - N/A   Clear
2:36 AM -7.6 °F -18.8 °F -7.6 °F 100% 30.12 in 10.0 mi SSE 4.6 mph - N/A   Clear
2:56 AM -5.8 °F -18.4 °F -11.2 °F 77% 30.12 in 10.0 mi SE 5.8 mph - N/A   Clear
3:16 AM -5.8 °F -16.7 °F -9.4 °F 84% 30.12 in 10.0 mi ESE 4.6 mph - N/A   Clear
3:36 AM -7.6 °F -20.6 °F -11.2 °F 84% 30.13 in 10.0 mi SE 5.8 mph - N/A   Clear
3:56 AM -5.8 °F -16.7 °F -9.4 °F 84% 30.13 in 10.0 mi SSE 4.6 mph - N/A   Clear
4:16 AM -7.6 °F - -13.0 °F 77% 30.13 in 10.0 mi Calm Calm - N/A   Clear
4:36 AM -7.6 °F -16.5 °F -9.4 °F 92% 30.12 in 10.0 mi ESE 3.5 mph - N/A   Clear
4:56 AM -7.6 °F -18.8 °F -11.2 °F 84% 30.12 in 10.0 mi East 4.6 mph - N/A   Clear
5:16 AM -5.8 °F -14.5 °F -9.4 °F 84% 30.13 in 10.0 mi SE 3.5 mph - N/A   Clear
5:36 AM -5.8 °F - -11.2 °F 77% 30.13 in 10.0 mi Calm Calm - N/A   Clear
5:56 AM -7.6 °F -16.5 °F -13.0 °F 77% 30.13 in 10.0 mi South 3.5 mph - N/A   Clear
6:16 AM -7.6 °F -18.8 °F -14.8 °F 71% 30.13 in 10.0 mi SSE 4.6 mph - N/A   Clear
6:36 AM -9.4 °F -24.3 °F -14.8 °F 77% 30.14 in 10.0 mi SSE 6.9 mph - N/A   Clear
6:56 AM -7.6 °F -22.1 °F -9.4 °F 92% 30.14 in 10.0 mi SE 6.9 mph - N/A   Clear
7:36 AM -5.8 °F -16.7 °F -5.8 °F 100% 30.15 in 10.0 mi SE 4.6 mph - N/A   Clear
7:56 AM -11.2 °F -20.6 °F -27.4 °F 45% 30.15 in 10.0 mi South 3.5 mph - N/A   Clear
8:16 AM -11.2 °F -20.6 °F -11.2 °F 100% 30.16 in 10.0 mi South 3.5 mph - N/A   Clear
8:36 AM -11.2 °F - -27.4 °F 45% 30.16 in 10.0 mi Calm Calm - N/A   Clear
8:56 AM -9.4 °F -20.9 °F -9.4 °F 100% 30.17 in 10.0 mi East 4.6 mph - N/A   Clear
9:16 AM -5.8 °F - -23.8 °F 42% 30.18 in 10.0 mi Calm Calm - N/A   Clear
9:36 AM -5.8 °F -18.4 °F - N/A% 30.19 in 10.0 mi ESE 5.8 mph - N/A   Clear
9:56 AM -2.2 °F -12.5 °F -23.8 °F 35% 30.19 in 10.0 mi SE 4.6 mph - N/A   Clear
10:16 AM -4.0 °F -12.4 °F -5.8 °F 92% 30.20 in 10.0 mi SE 3.5 mph - N/A   Clear
10:36 AM -7.6 °F -18.8 °F -16.6 °F 65% 30.21 in 10.0 mi SSE 4.6 mph - N/A   Clear
10:56 AM -7.6 °F -16.5 °F -7.6 °F 100% 30.21 in 10.0 mi ESE 3.5 mph - N/A   Clear
11:16 AM -7.6 °F - -9.4 °F 92% 30.22 in 10.0 mi Calm Calm - N/A   Clear
11:36 AM -7.6 °F -16.5 °F -9.4 °F 92% 30.23 in 10.0 mi SE 3.5 mph - N/A   Clear
11:56 AM -5.8 °F - -13.0 °F 71% 30.23 in 10.0 mi Calm Calm - N/A   Clear
12:16 PM -5.8 °F -16.7 °F -5.8 °F 100% 30.24 in 10.0 mi SSE 4.6 mph - N/A   Clear
12:36 PM -4.0 °F -14.6 °F -9.4 °F 78% 30.24 in 10.0 mi ESE 4.6 mph - N/A   Clear
12:56 PM -2.2 °F -12.5 °F -9.4 °F 71% 30.25 in 10.0 mi ESE 4.6 mph - N/A   Clear
1:16 PM -2.2 °F -15.6 °F -2.2 °F 100% 30.25 in 10.0 mi SE 6.9 mph - N/A   Clear
1:36 PM -0.4 °F -12.0 °F -7.6 °F 72% 30.26 in 10.0 mi SE 5.8 mph - N/A   Clear
1:56 PM -2.2 °F -12.5 °F -7.6 °F 78% 30.26 in 10.0 mi SE 4.6 mph - N/A   Clear
2:16 PM -2.2 °F -14.2 °F -4.0 °F 92% 30.26 in 10.0 mi ESE 5.8 mph - N/A   Clear
2:36 PM -2.2 °F -14.2 °F -7.6 °F 78% 30.26 in 10.0 mi ESE 5.8 mph - N/A   Clear
2:56 PM -2.2 °F -10.4 °F -7.6 °F 78% 30.27 in 10.0 mi ESE 3.5 mph - N/A   Clear
3:16 PM -2.2 °F -14.2 °F -7.6 °F 78% 30.26 in 10.0 mi ESE 5.8 mph - N/A   Clear
3:36 PM -2.2 °F - -5.8 °F 85% 30.27 in 10.0 mi Calm Calm - N/A   Clear
3:56 PM -5.8 °F -14.5 °F -16.6 °F 60% 30.27 in 10.0 mi SE 3.5 mph - N/A   Clear
4:16 PM -5.8 °F -14.5 °F -5.8 °F 100% 30.27 in 10.0 mi East 3.5 mph - N/A   Clear
4:36 PM -5.8 °F - -13.0 °F 71% 30.28 in 10.0 mi Calm Calm - N/A   Clear
4:56 PM -5.8 °F - -11.2 °F 77% 30.29 in 10.0 mi Calm Calm - N/A   Clear
5:16 PM -5.8 °F -14.5 °F -5.8 °F 100% 30.29 in 10.0 mi East 3.5 mph - N/A   Clear
5:36 PM -7.6 °F -16.5 °F -13.0 °F 77% 30.30 in 5.0 mi SW 3.5 mph - N/A   Clear
5:56 PM -7.6 °F -18.8 °F -9.4 °F 92% 30.31 in 10.0 mi South 4.6 mph - N/A   Clear
6:16 PM -7.6 °F -16.5 °F -14.8 °F 71% 30.31 in 10.0 mi SSE 3.5 mph - N/A   Clear
6:36 PM -7.6 °F -16.5 °F -7.6 °F 100% 30.32 in 10.0 mi SSE 3.5 mph - N/A   Clear
6:56 PM -7.6 °F - -11.2 °F 84% 30.33 in 10.0 mi Calm Calm - N/A   Clear
7:16 PM -5.8 °F - -7.6 °F 92% 30.32 in 10.0 mi Calm Calm - N/A   Clear
7:36 PM -5.8 °F -14.5 °F -9.4 °F 84% 30.33 in 10.0 mi SSE 3.5 mph - N/A   Clear
7:56 PM -7.6 °F -18.8 °F -14.8 °F 71% 30.33 in 10.0 mi SSE 4.6 mph - N/A   Clear
8:16 PM -7.6 °F -16.5 °F -7.6 °F 100% 30.33 in 10.0 mi SSE 3.5 mph - N/A   Clear
8:36 PM -7.6 °F -16.5 °F -14.8 °F 71% 30.33 in 10.0 mi SSE 3.5 mph - N/A   Clear
8:56 PM -5.8 °F -14.5 °F -9.4 °F 84% 30.34 in 10.0 mi SSE 3.5 mph - N/A   Clear
9:16 PM -5.8 °F -18.4 °F -5.8 °F 100% 30.34 in 10.0 mi SE 5.8 mph - N/A   Clear
9:36 PM -4.0 °F - -11.2 °F 71% 30.35 in 10.0 mi Calm Calm - N/A   Clear
9:56 PM -2.2 °F -10.4 °F -5.8 °F 85% 30.34 in 10.0 mi ESE 3.5 mph - N/A   Clear
10:16 PM -4.0 °F - -9.4 °F 78% 30.35 in 10.0 mi Calm Calm - N/A   Clear
10:36 PM -2.2 °F - -7.6 °F 78% 30.36 in 10.0 mi Calm Calm - N/A   Clear
10:56 PM -2.2 °F - -7.6 °F 78% 30.36 in 10.0 mi Calm Calm - N/A   Clear
11:16 PM -4.0 °F - -9.4 °F 78% 30.37 in 10.0 mi Calm Calm - N/A   Clear
11:36 PM -2.2 °F - -5.8 °F 85% 30.37 in 10.0 mi Calm Calm - N/A   Clear
11:56 PM -2.2 °F -10.4 °F -5.8 °F 85% 30.37 in 10.0 mi ESE 3.5 mph - N/A   Clear